Springfield Beckley Municipal Airport
KSGH : now visible

Airfield :











YOU CAN JOIN US ON...

 
LOGIN :

Register | Disclaimer

   EN    FR    IT 

 









Legend :    VFR   Marginal VFR   IFR   Intensive IFR   Very Intensive IFR
Visi :
Ceiling :
>= 8 km
>= 3000ft
5 to 8 km
1000 to 3000 ft
1500m to 5 km
500 to 1000 ft
800 to 1500m
200 to 500 ft
< 800m
< 200 ft
Symbols :   Thunderstorms  Fog  Heavy snow  Heavy precipitations  Wind > 20 kt






- Airport Elevation : 1051 ft


KSGH - Springfield Beckley Municipal

CURRENT METAR :
  • 270056Z AUTO 15009KT 10SM CLR 26/18 A3002 RMK AO2 SLP161 T02610183

EXPIRED METARs :
  • 262356Z AUTO 14010KT 10SM CLR 28/18 A3001 RMK AO2 SLP156 6//// T02780183 10306 20278 55001
  • 262256Z AUTO 14011KT 10SM CLR 29/19 A3000 RMK AO2 SLP153 T02890189

TAF N/A
KZID FIR / North America



MET'MAP, your aeronautical weather chart ! - Copyright ORBIFLY December 2007 - Disclaimer

ORBIFLY MET'MAP TEAM :

Programming & Development : Alexandra Zaïnal
Concept & original design : Baudouin d'Aumeries
Assistance for programming : Marc-Olivier Méhu
Technical & hardware support : Manuel Goepfert

Contact : metmap@orbifly.com




SOURCES & CREDITS :

   NOAA       Earth
Advisory